DELTA 1 DEB, 26036

Orbit data source: Space-Track

DELTA 1 DEB, 26036 is space debris in SSO originally from a launch on Thu, 12 Jun 1975 UTC launched from the Air Force Western Test Range (AFWTR). Debris objects in space refer to the collection of defunct objects orbiting the Earth. Examples of debris include non-operational satellites, rocket bodies, and fragments generated from explosions, collisions, or faulty payload assembly.

Loading next visibility...
Identifier
26036, 1975-052KA
Orbit
SSO
Country
Flag of USUS
Related business
Manufacturer
Unknown
Mission
Spacecraft
Bus & Motor
Unknown
Mass
Unknown
Launch date (UTC)
1975-06-12 (51 years ago)
Launch vehicle
Unknown
Launch site
Air Force Western Test Range (AFWTR)
Object type
Payload
Rocket body
Debris
Shape & HBR
Unknown shape, 0.1 m
Radar Cross Section
Small (<0.1 m²)

Expand to show TLE details & history
Last TLE update: 18 hours ago

TLE from 18 hours ago
0 DELTA 1 DEB
1 26036U 75052KA  26124.34733434  .00014520  00000-0  16830-2 0  9994
2 26036  99.9438 343.5933 0054176 188.6073 171.4211 14.84542893427982
Epoch: 2026-05-04T08:20Z
TLE epoch observation values (Epoch: 2026-05-04T08:20:09.686Z)
Latitude
-0.00004°
Longitude
-3.68489°
Altitude
655.454 km
Speed
7.51 km/s
True Right ascension
22h 54m 22s
True Declination
0° 00' 00"
Sunlit
Object was in daylight at epoch
Visualization orbit readout
Latitude
Unknown
Longitude
Unknown
Altitude
Unknown
Speed
Unknown
Apparent Right ascension
Unknown
Apparent Declination
Unknown
Sunlit
N/A
Visualization observer readout
Local Sidereal Time
10:34:56
Azimuth
Unknown
Elevation
Unknown
Doppler factor
Unknown
Orbital elements
Apogee altitude
650.029 km
Perigee altitude
574.288 km
Semi-major axis
6,990.296 km
Eccentricity
0.00542
Inclination
99.9438°
RAAN
343.5933°
Arg. of periapsis
188.6073°
True anomaly
171.51309°
Mean anomaly
171.4211°
Eccentric anomaly
171.46716°
Mean motion
3.71364 °/min
Orbital period
96.94 mins
BSTAR
0.001683
Loading maneuver chart data...
Computing Atmospheric mass density...

Documentation

Showing up to 5 results
|